Weather History for KNEW - January, 2013

Change the Weather History Date:

Wednesday, January 9, 2013

  Actual Average Record
Temperature  
Mean Temperature 63 °F 53 °F  
Max Temperature 66 °F 62 °F 80 °F (1974)
Min Temperature 60 °F 45 °F 22 °F (1970)
Degree Days  
Heating Degree Days 2 12  
Month to date heating degree days 108  
Since 1 July heating degree days 589  
Cooling Degree Days 0 1  
Month to date cooling degree days 9  
Year to date cooling degree days 9  
Growing Degree Days 13 (Base 50)    
Moisture  
Dew Point 60 °F    
Average Humidity 86    
Maximum Humidity 88    
Minimum Humidity 82    
Precipitation  
Precipitation 0.44 in 0.16 in 1.54 in (1999)
Month to date precipitation 1.46  
Year to date precipitation 1.46  
Snow  
Snow 0.00 in - - ()
Month to date snowfall  
Since 1 July snowfall  
Snow Depth -    
Sea Level Pressure  
Sea Level Pressure 30.13 in    
Wind  
Wind Speed 13 mph (East)    
Max Wind Speed 17 mph    
Max Gust Speed 24 mph    
Visibility 2 miles    
Events Fog , Rain    
T = Trace of Precipitation, MM = Missing Value Source: NWS Daily Summary

Daily Weather History Graph

Daily Weather History Graph

Search for Another Location

Airport or City:

Trip Planner

Search our weather history database for the weather conditions in past years. The results will help you decide how hot, cold, wet, or windy it might be!

Date:

Astronomy

Jan. 09, 2013 Rise Set
Actual Time 6:57 AM CST 5:17 PM CST
Civil Twilight 6:31 AM CST 5:43 PM CST
Nautical Twilight 6:01 AM CST 6:13 PM CST
Astronomical Twilight 5:32 AM CST 6:42 PM CST
Moon 4:36 AM CST (1/9) 3:19 PM CST (1/9)
Length of Visible Light 11h 12m
Length of Day
10h 20m
Waning Crescent, 6% of the Moon is Illuminated
Jan 9
Waning Crescent
Jan 11
New
Jan 18
First Quarter
Jan 26
Full
Feb 3
Last Quarter

Hourly Weather History & Observations

Time (CST) Temp. Dew Point Humidity Pressure Visibility Wind Dir Wind Speed Gust Speed Precip Events Conditions
12:06 AM 60.8 °F 57.2 °F 88% 30.14 in 2.0 mi East 12.7 mph - 0.00 in Rain Light Rain
12:17 AM 60.8 °F 55.4 °F 82% 30.14 in 1.5 mi East 10.4 mph - 0.01 in Rain Light Rain
12:53 AM 60.1 °F 55.9 °F 86% 30.13 in 2.0 mi East 8.1 mph - 0.03 in Rain Light Rain
1:32 AM 60.8 °F 55.4 °F 82% 30.14 in 2.0 mi East 11.5 mph - 0.04 in Rain Light Rain
1:53 AM 62.1 °F 57.0 °F 84% 30.12 in 2.5 mi East 12.7 mph - 0.07 in Rain Light Rain
2:33 AM 62.6 °F 57.2 °F 82% 30.12 in 3.0 mi East 15.0 mph - 0.07 in Rain Light Rain
2:49 AM 62.6 °F 57.2 °F 82% 30.12 in 2.5 mi East 13.8 mph - 0.12 in Rain Light Rain
2:53 AM 62.1 °F 57.0 °F 84% 30.10 in 3.0 mi East 13.8 mph - 0.13 in Rain Light Rain
3:53 AM 63.0 °F 59.0 °F 87% 30.08 in 5.0 mi ESE 16.1 mph - 0.15 in Rain Light Rain
4:07 AM 62.6 °F 59.0 °F 88% 30.09 in 4.0 mi East 16.1 mph - 0.04 in Rain Rain
4:53 AM 63.0 °F 59.0 °F 87% 30.06 in 6.0 mi East 16.1 mph 23.0 mph 0.06 in   Mostly Cloudy
5:07 AM 64.4 °F 59.0 °F 83% 30.09 in 7.0 mi ESE 12.7 mph - 0.00 in   Mostly Cloudy
5:27 AM 62.6 °F 59.0 °F 88% 30.10 in 5.0 mi ESE 13.8 mph 24.2 mph 0.00 in   Overcast
5:53 AM 63.0 °F 57.9 °F 84% 30.09 in 5.0 mi ESE 16.1 mph - 0.00 in   Haze
6:53 AM 62.6 °F 57.2 °F 82% 30.13 in 4.0 mi East 13.8 mph - N/A   Haze
7:53 AM 63.0 °F 57.9 °F 84% 30.12 in 2.5 mi ESE 15.0 mph - N/A   Haze
8:12 AM 62.6 °F 59.0 °F 88% 30.15 in 1.8 mi ESE 15.0 mph - N/A   Overcast
8:29 AM 62.6 °F 59.0 °F 88% 30.16 in 0.5 mi ESE 16.1 mph 24.2 mph N/A Fog Fog
8:31 AM 62.6 °F 59.0 °F 88% 30.16 in 0.2 mi ESE 17.3 mph 24.2 mph N/A Fog Fog
8:53 AM 63.0 °F 57.9 °F 84% 30.15 in 0.2 mi ESE 12.7 mph - N/A   Haze
9:53 AM 63.0 °F 59.0 °F 87% 30.17 in 0.2 mi ESE 12.7 mph - N/A Fog Fog
10:53 AM 64.0 °F 60.1 °F 87% 30.17 in 0.2 mi ESE 11.5 mph 20.7 mph N/A Fog Fog
11:53 AM 64.0 °F 60.1 °F 87% 30.14 in 0.2 mi East 15.0 mph - N/A Fog Fog
12:53 PM 64.9 °F 61.0 °F 87% 30.11 in 0.2 mi East 15.0 mph - N/A Fog Fog
1:05 PM 66.2 °F 60.8 °F 83% 30.12 in 0.5 mi East 16.1 mph - N/A   Haze
1:53 PM 64.9 °F 61.0 °F 87% 30.11 in 0.2 mi East 16.1 mph - N/A Fog Fog
2:03 PM 64.4 °F 60.8 °F 88% 30.12 in 0.5 mi East 15.0 mph - N/A Fog Fog
2:53 PM 64.9 °F 61.0 °F 87% 30.10 in 0.8 mi East 16.1 mph - N/A   Mist
3:05 PM 64.4 °F 60.8 °F 88% 30.12 in 1.0 mi East 15.0 mph - N/A   Overcast
3:40 PM 64.4 °F 60.8 °F 88% 30.12 in 0.5 mi East 12.7 mph - N/A   Haze
3:53 PM 64.0 °F 60.1 °F 87% 30.10 in 0.5 mi East 13.8 mph - N/A Fog Fog
4:53 PM 66.0 °F 61.0 °F 84% 30.10 in 0.8 mi East 16.1 mph - N/A   Haze
5:53 PM 66.0 °F 62.1 °F 87% 30.13 in 0.8 mi ESE 12.7 mph - N/A   Mist
6:53 PM 64.9 °F 61.0 °F 87% 30.14 in 0.5 mi East 13.8 mph - N/A Fog Fog
7:53 PM 64.9 °F 61.0 °F 87% 30.15 in 0.5 mi East 16.1 mph - N/A Fog Fog
8:53 PM 66.0 °F 62.1 °F 87% 30.15 in 0.5 mi East 15.0 mph - N/A Fog Fog
9:17 PM 66.2 °F 62.6 °F 88% 30.18 in 0.2 mi East 13.8 mph - N/A Fog Fog
9:53 PM 66.0 °F 62.1 °F 87% 30.16 in 0.2 mi East 13.8 mph - N/A Fog Fog
10:17 PM 66.2 °F 62.6 °F 88% 30.17 in 0.5 mi East 11.5 mph - 0.00 in Fog , Rain Light Rain
10:53 PM 66.0 °F 62.1 °F 87% 30.16 in 0.5 mi East 10.4 mph - 0.00 in Fog Fog
11:53 PM 66.9 °F 63.0 °F 87% 30.15 in 0.5 mi ESE 16.1 mph - N/A Fog Fog